Voltar ao catálogo

COSMOS 2483

AtivoNavegaçãoPO
NORAD 39058·PAYLOAD·🇷🇺 Russia

Lançado Jan 15, 2013 de Plesetsk Cosmodrome

Loading…

Próximas Passagens (próximas 24 horas)

TLE

AtualizadoSource: Space-Track

Época: Sep 14, 2026, 22:46 UTC

1 39058U 13001B   26257.94911258  .00000027  00000-0  11856-3 0  9994
2 39058  82.5037 158.9887 0016025 172.5339 187.5983 12.44026508612756

Acompanhe COSMOS 2483 em tempo real com AllMySat

Download on the App Store